Flag for Norway Weather past 2 weeks in Lierbyen, Norway

54 °F


Feels Like: 47 °F
Forecast: 39 / 48 °F
Wind: 32 mph from South

Location: Oslo / Fornebu

Current Time: Oct 9, 2015 at 6:49:18 PM

Latest Report: Oct 9, 2015 at 5:50 PM

Visibility: N/A

Pressure: 30.15 "Hg

Humidity: 82%

Dew point: 48 °F

Location of LierbyenLocation

Historic Weather in Lierbyen — Graph


Lierbyen temperature yesterday

Maximum temperature yesterday: 54 °F (at 12:20 AM)
Minimum temperature yesterday: 52 °F (at 12:50 AM)
Average temperature yesterday: 52 °F

Past Weeks' High & Low Weather Summary

High61 °F (Oct 5, 11:50 PM)100% (Sep 27, 3:20 AM)30.60 "Hg (Sep 27, 3:20 AM)
Low50 °F (Sep 24, 10:20 PM)55% (Oct 6, 7:50 PM)29.53 "Hg (Sep 24, 5:20 PM)
Average53 °F84%30.10 "Hg
* Reported Sep 24 5:20 PM — Oct 9 5:20 PM, Lierbyen, Weather by CustomWeather, © 2015

Note: Actual official high and low records may vary slightly from our data, if they occured in-between our weather recording intervals... More about our weather records


Lierbyen weather history for previous 24 hours

Time TempWeatherWind HumidityBarometerVisibility
5:20 PM
Fri, Oct 9
54 °FCool.29 mph77%30.15 "HgN/A
4:50 PM54 °FCool.29 mph77%30.15 "HgN/A
4:20 PM54 °FCool.26 mph82%30.15 "HgN/A
3:50 PM54 °FCool.26 mph82%30.15 "HgN/A
3:20 PM55 °FCool.28 mph77%30.15 "HgN/A
2:50 PM55 °FCool.29 mph72%30.15 "HgN/A
2:20 PM55 °FPassing clouds.28 mph72%30.15 "HgN/A
1:50 PM55 °FPassing clouds.26 mph72%30.15 "HgN/A
1:20 PM54 °FPassing clouds.24 mph77%30.15 "HgN/A
12:50 PM54 °FPassing clouds.24 mph77%30.15 "HgN/A
12:20 PM54 °FScattered clouds.25 mph77%30.15 "HgN/A
11:50 AM54 °FScattered clouds.24 mph77%30.15 "HgN/A
11:20 AM54 °FPassing clouds.23 mph77%30.15 "HgN/A
10:50 AM54 °FPassing clouds.22 mph77%30.15 "HgN/A
10:20 AM54 °FCool.N/A77%30.15 "HgN/A
9:50 AM52 °FPassing clouds.21 mph82%30.15 "HgN/A
9:20 AM52 °FPassing clouds.21 mph82%30.15 "HgN/A
8:50 AM52 °FPassing clouds.20 mph82%30.15 "HgN/A
8:20 AM52 °FPassing clouds.16 mph88%30.15 "HgN/A
7:50 AM52 °FPassing clouds.15 mph88%30.15 "HgN/A
7:20 AM52 °FPassing clouds.16 mph82%30.12 "HgN/A
6:50 AM50 °FPassing clouds.17 mph88%30.12 "HgN/A
6:20 AM50 °FPassing clouds.16 mph88%30.12 "HgN/A
5:50 AM50 °FCool.18 mph88%30.12 "HgN/A
5:20 AM50 °FCool.20 mph88%30.09 "HgN/A
4:50 AM50 °FCool.15 mph94%30.09 "HgN/A
4:20 AM50 °FPassing clouds.17 mph94%30.09 "HgN/A
3:50 AM50 °FPartly cloudy.21 mph94%30.07 "HgN/A
3:20 AM52 °FMostly cloudy.17 mph94%30.07 "HgN/A
2:50 AM52 °FPassing clouds.8 mph100%30.07 "HgN/A
2:20 AM52 °FPassing clouds.2 mph100%30.07 "HgN/A
1:50 AM52 °FPartly cloudy.3 mph100%30.07 "HgN/A
1:20 AM52 °FPassing clouds.14 mph94%30.07 "HgN/A
12:50 AM52 °FLow clouds.21 mph94%30.07 "HgN/A
12:20 AM52 °FLight rain. Passing clouds.26 mph94%30.04 "HgN/A
10:50 PM
Thu, Oct 8
54 °FSprinkles. Low clouds.29 mph88%30.07 "HgN/A
10:20 PM52 °FSprinkles. Mostly cloudy.26 mph94%30.07 "HgN/A
9:50 PM54 °FLight rain. Passing clouds.26 mph94%30.07 "HgN/A
9:20 PM52 °FRain. Passing clouds.33 mph94%30.04 "Hg3 mi
8:50 PM52 °FLight rain. Fog.33 mph100%30.04 "Hg2 mi
8:20 PM52 °FLight rain. Passing clouds.30 mph100%30.04 "HgN/A
7:50 PM52 °FLight rain. Passing clouds.31 mph100%30.04 "Hg4 mi
7:20 PM52 °FLight rain. Partly sunny.32 mph100%30.04 "Hg4 mi
6:50 PM52 °FLight rain. Partly sunny.31 mph94%30.04 "Hg5 mi
6:20 PM52 °FLight rain. Partly sunny.35 mph94%30.01 "Hg4 mi
Weather by CustomWeather, © 2015

See weather overviewHow to use our weather pages